Location: Hurecourt
(47.9030°N, 6.0653°E)
Time: 21:07:44
(UTC+00:00)

Cosmos 1703 Rocket - Pass Details

Date: 14 July 2020
Orbit: 605 x 634 km, 82.5° (Epoch: 14 August)

Event Time Altitude Azimuth Distance (km) Brightness Sun altitude
Rises 00:29:27 0° 353° (N) 2,936 8.4 -19.6°
Reaches altitude 10° 00:31:44 10° 358° (N) 2,020 7.3 -19.6°
Maximum altitude 00:36:09 57° 77° (ENE) 744 4.0 -19.4°
Enters shadow 00:38:06 30° 143° (SE) 1,113 4.5 -19.3°
